Location: Helsinki
(60.1699°N, 24.9384°E)
Time: 23:05:12
(UTC+02:00)

Altair - Pass Details

Date: 01 November 2020
Orbit: 1502 x 1682 km, 47.2° (Epoch: 25 November)

Event Time Altitude Azimuth Distance (km) Brightness Sun altitude
Rises 08:21:08 0° 262° (W) 4,691 9.6 3.0°
Reaches altitude 10° 08:24:27 10° 254° (WSW) 3,729 9.2 3.4°
Maximum altitude 08:32:41 36° 193° (SSW) 2,335 8.9 4.2°
Drops below altitude 10° 08:41:11 10° 132° (SE) 3,850 12.7 5.0°
Sets 08:44:40 0° 125° (SE) 4,860 12.6 5.3°
